Regional Weather Roundup
Issued by NWS

Home | Current Version | Previous Version | Text Only | Print | Product List | Glossary On
Versions: 1 2 3 4 5 6 7 8 9 10 11 12 13 14 15 16 17 18 19 20 21 22 23 24 25 26 27 28 29 30 31 32 33 34 35 36 37 38 39 40 41 42 43 44 45 46 47 48 49 50
000
ASUS44 KOUN 231510
RWROK

WEATHER ROUNDUP FOR OKLAHOMA
NATIONAL WEATHER SERVICE NORMAN OK
900 AM CST THU NOV 23 2017

NOTE: "FAIR" INDICATES FEW OR NO CLOUDS BELOW 12,000 FEET WITH NO
      SIGNIFICANT WEATHER AND/OR OBSTRUCTIONS TO VISIBILITY.

OKZ001>007-009>012-014-015-017-231600-
NORTHWEST OKLAHOMA AND THE PANHANDLE

CITY           SKY/WX    TMP DP  RH WIND       PRES   REMARKS
GAGE           SUNNY     48  32  53 W7        30.13R
GUYMON         CLOUDY    56  38  50 NW7       30.18R
ENID/WOODRING  SUNNY     41  30  65 CALM      30.10S
$$

OKZ016-021>023-033>039-044-045-231600-
SOUTHWEST OKLAHOMA

CITY           SKY/WX    TMP DP  RH WIND       PRES   REMARKS
LAWTON/REGL    SUNNY     40  30  67 CALM      30.16R
LAWTON/FT SILL SUNNY     43  28  54 S5        30.14R
FREDERICK      CLOUDY    44  24  45 CALM      30.12S
CLINTON        CLOUDY    53  30  41 NW5       30.13R
HOBART         CLOUDY    44  23  43 SW7       30.14S
$$

OKZ018>020-024>031-231600-
CENTRAL OKLAHOMA

CITY           SKY/WX    TMP DP  RH WIND       PRES   REMARKS
OKLAHOMA CITY  MOSUNNY   42  25  50 SW8       30.13S
OKC/WILEY POST SUNNY     45  24  43 SW12      30.13S
OKC/TINKER AFB SUNNY     44  24  45 SW10      30.12S HAZE
STILLWATER     SUNNY     42  27  55 S3        30.13R
GUTHRIE        SUNNY     45  23  42 SW6       30.13R
$$

OKZ008-013-054>072-231600-
NORTHEAST OKLAHOMA

CITY           SKY/WX    TMP DP  RH WIND       PRES   REMARKS
TULSA          MOSUNNY   43  24  47 S6        30.16R
TULSA/JONES    SUNNY     42  23  46 S6        30.16R
PONCA CITY     SUNNY     44  23  43 S5        30.11F
BARTLESVILLE   SUNNY     38  27  64 S6        30.15F WCI  33
MUSKOGEE       SUNNY     39  30  70 S7        30.19S WCI  34
$$

OKZ032-040>043-046>053-073>077-231600-
SOUTH CENTRAL/SOUTHEAST OKLAHOMA

CITY           SKY/WX    TMP DP  RH WIND       PRES   REMARKS
ARDMORE/DWNTWN SUNNY     43  27  52 CALM      30.17S
MCALESTER      MOSUNNY   43  31  62 CALM      30.19S
$$




USA.gov is the U.S. government's official web portal to all federal, state and local government web resources and services.